Location: Days
(41.3591°N, 106.7339°W)
Time: 08:56:17
(UTC+00:00)

O/OREOS (USA 219) - Pass Details

Date: 04 July 2022
Orbit: 621 x 646 km, 72.0° (Epoch: 22 May)

Event Time Altitude Azimuth Distance (km) Brightness Sun altitude
Rises 08:21:12 0° 318° (NW) 2,963 ? -23.8°
Reaches altitude 10° 08:24:21 10° 296° (WNW) 2,049 ? -23.6°
Enters shadow 08:25:32 13° 281° (WNW) 1,832 ? -23.5°
